This is the latest recevied weather packets stored in our database for station/object KC1TEM-13. If no packets are shown the sender has not sent any weather packets the latest 10 day(s).
| Time | Temp. | Humidity | Pressure | Rain* | Wind** | Luminosity | Snow |
|---|---|---|---|---|---|---|---|
| 1778017141 | 26.67° C | 34% | 1005.1 hPa | 0 mm | - | 112 W/m² | - |
| 1778016839 | 27.22° C | 33% | 1005 hPa | 0 mm | - | 176 W/m² | - |
| 1778016535 | 27.22° C | 32% | 1004.9 hPa | 0 mm | - | 212 W/m² | - |
| 1778016232 | 27.78° C | 33% | 1004.8 hPa | 0 mm | - | 177 W/m² | - |
| 1778015928 | 27.78° C | 31% | 1004.8 hPa | 0 mm | - | 151 W/m² | - |
| 1778015626 | 28.33° C | 30% | 1005 hPa | 0 mm | - | 260 W/m² | - |
| 1778015322 | 27.78° C | 30% | 1004.8 hPa | 0 mm | - | 293 W/m² | - |
| 1778015019 | 27.78° C | 29% | 1004.8 hPa | 0 mm | - | 286 W/m² | - |
| 1778014716 | 27.78° C | 30% | 1004.9 hPa | 0 mm | - | 245 W/m² | - |
| 1778014414 | 27.78° C | 30% | 1004.9 hPa | 0 mm | - | 194 W/m² | - |
| 1778014110 | 28.33° C | 29% | 1004.8 hPa | 0 mm | - | 215 W/m² | - |
| 1778013809 | 28.33° C | 30% | 1004.8 hPa | 0 mm | - | 330 W/m² | - |
| 1778013506 | 28.33° C | 30% | 1004.6 hPa | 0 mm | - | 202 W/m² | - |
| 1778013202 | 28.89° C | 30% | 1004.8 hPa | 0 mm | - | 290 W/m² | - |
| 1778012898 | 28.89° C | 29% | 1004.8 hPa | 0 mm | - | 376 W/m² | - |
| 1778012595 | 28.33° C | 30% | 1004.9 hPa | 0 mm | - | 387 W/m² | - |
| 1778012291 | 28.33° C | 30% | 1005.3 hPa | 0 mm | - | 475 W/m² | - |
| 1778011989 | 28.33° C | 30% | 1005.1 hPa | 0 mm | - | 479 W/m² | - |
| 1778011687 | 28.33° C | 31% | 1005 hPa | 0 mm | - | 520 W/m² | - |
| 1778011384 | 28.89° C | 31% | 1005 hPa | 0 mm | - | 206 W/m² | - |
| 1778011079 | 28.89° C | 32% | 1005.1 hPa | 0 mm | - | 551 W/m² | - |
| 1778010777 | 28.33° C | 32% | 1004.9 hPa | 0 mm | - | 589 W/m² | - |
| 1778010474 | 28.33° C | 32% | 1005.3 hPa | 0 mm | - | 284 W/m² | - |
| 1778010170 | 28.33° C | 32% | 1005 hPa | 0 mm | - | 110 W/m² | - |
| 1778009866 | 27.78° C | 33% | 1005.1 hPa | 0 mm | - | 172 W/m² | - |
* Rain latest hour (hover to see other rain measurements)
** Current wind speed in m/s (hover to see current wind gust speed)